User: anonymous   Login
Location: *
(44.3925°N, 5.4708°E)
Time: 15:59:42
(UTC+00:00)
Language:

Aureole 1 Rocket - Orbit

View from above orbital plane
View from above orbital plane
View from above satellite
View from above satellite

Ground track
Ground track

The orbit data is extracted from the following two-line orbital elements,

1  5730U 71119B   19318.19730906  .00000624  00000-0  42756-4 0  9991
2  5730  73.8953  19.6765 0690114  87.6400 280.3516 14.03726778329095
Epoch (UTC): 14 November 2019 04:44:07
Eccentricity: 0.0690114
inclination: 73.8953°
perigee height: 380 km
apogee height: 1382 km
right ascension of ascending node: 19.6765°
argument of perigee: 87.6400°
revolutions per day: 14.03726778
mean anomaly at epoch: 280.3516°
orbit number at epoch: 32909

The dashed part of the orbit path shows where the satellite is in the earth's shadow,  

DLR